This is the latest recevied weather packets stored in our database for station/object KJ6BBX. If no packets are shown the sender has not sent any weather packets the latest 10 day(s).
| Time | Temp. | Humidity | Pressure | Rain* | Wind** | Luminosity | Snow |
|---|---|---|---|---|---|---|---|
| 1777563314 | 15° C | 80% | 1005.7 hPa | 0 mm | - | 124 W/m² | - |
| 1777562413 | 15° C | 81% | 1005.5 hPa | 0 mm | - | 116 W/m² | - |
| 1777561514 | 15° C | 83% | 1005.5 hPa | 0 mm | - | 98 W/m² | - |
| 1777560614 | 14.44° C | 85% | 1005.5 hPa | 0 mm | - | 68 W/m² | - |
| 1777559714 | 13.89° C | 87% | 1005.4 hPa | 0 mm | - | 63 W/m² | - |
| 1777558814 | 13.89° C | 89% | 1005.5 hPa | 0 mm | - | 44 W/m² | - |
| 1777557915 | 13.33° C | 90% | 1005.5 hPa | 0 mm | - | 35 W/m² | - |
| 1777557015 | 13.33° C | 91% | 1005.4 hPa | 0 mm | - | 19 W/m² | - |
| 1777556114 | 13.33° C | 92% | 1005.2 hPa | 0 mm | - | 11 W/m² | - |
| 1777555214 | 13.33° C | 93% | 1005.1 hPa | 0 mm | - | 2 W/m² | - |
| 1777554315 | 12.78° C | 93% | 1005.1 hPa | 0 mm | - | 0 W/m² | - |
| 1777553415 | 12.78° C | 93% | 1004.9 hPa | 0 mm | - | 0 W/m² | - |
| 1777552516 | 12.22° C | 94% | 1005.3 hPa | 0 mm | - | 0 W/m² | - |
| 1777551614 | 11.67° C | 95% | 1005.4 hPa | 0 mm | - | 0 W/m² | - |
| 1777550714 | 11.67° C | 94% | 1005 hPa | 0 mm | - | 0 W/m² | - |
| 1777549814 | 11.67° C | 94% | 1005.1 hPa | 0 mm | - | 0 W/m² | - |
| 1777548914 | 11.11° C | 93% | 1005.3 hPa | 0 mm | - | 0 W/m² | - |
| 1777548014 | 11.67° C | 92% | 1005.4 hPa | 0 mm | - | 0 W/m² | - |
| 1777547115 | 11.11° C | 92% | 1005.6 hPa | 0 mm | - | 0 W/m² | - |
| 1777546214 | 11.67° C | 91% | 1005.6 hPa | 0 mm | - | 0 W/m² | - |
| 1777545316 | 11.67° C | 91% | 1005.5 hPa | 0 mm | - | 0 W/m² | - |
| 1777544414 | 11.67° C | 90% | 1005.5 hPa | 0 mm | - | 0 W/m² | - |
| 1777543514 | 11.67° C | 89% | 1005.6 hPa | 0 mm | - | 0 W/m² | - |
| 1777542614 | 11.67° C | 89% | 1006 hPa | 0 mm | - | 0 W/m² | - |
| 1777541714 | 11.67° C | 89% | 1005.8 hPa | 0 mm | - | 0 W/m² | - |
* Rain since midnight (hover to see other rain measurements)
** Current wind speed in m/s (hover to see current wind gust speed)